Regional Weather Roundup
Issued by NWS Sterling, VA

Home | Current Version | Previous Version | Graphics & Text | Print | Product List | Glossary On
Versions: 1 2 3 4 5 6 7 8 9 10 11 12 13 14 15 16 17 18 19 20 21 22 23 24 25 26 27 28 29 30 31 32 33 34 35 36 37 38 39 40 41 42 43 44 45 46 47 48 49 50
000
ASUS41 KLWX 260510
RWRLWX

REGIONAL WEATHER ROUNDUP
NATIONAL WEATHER SERVICE BALTIMORE MD/WASHINGTON DC
100 AM EDT SUN APR 26 2015

Note: "FAIR" indicates few or no clouds below 12,000 feet
with no significant weather and/or obstructions to visibility.
 TC=TEMPERATURE CELSIUS

 * =Non NWS site. Station does not report precipitation (e.g. rain,
    snow, etc.), thunder, or fog.

DCZ001-MDZ009-015-VAZ040>042-051-053>054-260600-
WASHINGTON METRO

CITY           SKY/WX    TMP DP  RH WIND       PRES   REMARKS
WASHINGTON NAT CLOUDY    46  39  76 E3        29.73F
DULLES         CLOUDY    41  38  89 CALM      29.72F
ANDREWS AFB    CLOUDY    42  41  97 NE3       29.71S
FT BELVOIR     MOCLDY    41  39  93 CALM      29.72F
QUANTICO       CLOUDY    43  39  86 N6        29.74F
COLLEGE PARK*  CLOUDY    43  41  93 S3        29.72F
LEESBURG*      CLOUDY    41  41 100 S5        29.71F
MANASSAS*      CLOUDY    41  39  93 CALM      29.73S
GAITHERSBURG*  CLOUDY    41  37  87 CALM      29.73F

$$

MDZ006>007-011-014-260600-
BALTIMORE METRO

CITY           SKY/WX    TMP DP  RH WIND       PRES   REMARKS
BWI AIRPORT    CLOUDY    42  39  89 CALM      29.71R
MD SCIENCE CTR   N/A     45  37  73 MISG      29.72S
MARTIN STATE   CLOUDY    45  37  76 W5        29.73R
ANNAPOLIS      LGT RAIN  44  40  85 S9        29.70F
FORT MEADE*    CLOUDY    41  39  93 CALM      29.73F

$$

MDZ012-015-019>023-260600-
MARYLAND EASTERN SHORE

CITY           SKY/WX    TMP DP  RH WIND       PRES   REMARKS
OCEAN CITY     CLOUDY    43  39  86 N6        29.71F
SALISBURY      CLOUDY    43  41  93 N6        29.71F
BAY BRIDGE AP*   N/A    N/A N/A N/A S6        29.71F
CAMBRIDGE*     MOCLDY    45  41  87 NE6       29.72S
EASTON*        DRIZZLE   44  44 100 SW6       29.75F

$$

MDZ017>025-260600-
SOUTHERN MARYLAND

CITY           SKY/WX    TMP DP  RH WIND       PRES   REMARKS
PATUXENT RIVER CLOUDY    44  40  85 NE12      29.72S
ST INIGOES     CLOUDY    45  41  86 NE7       29.71S
LEONARDTOWN*   CLOUDY    43  41  93 CALM      29.73F

$$

MDZ003>005-260600-
NORTH CENTRAL MARYLAND

CITY           SKY/WX    TMP DP  RH WIND       PRES   REMARKS
FREDERICK*     CLOUDY    41  36  81 SW3       29.74R
HAGERSTOWN APT CLOUDY    41  34  76 S3        29.71R
WESTMINSTER*   NOT AVBL

$$

MDZ501>502-260600-
WESTERN MARYLAND

CITY           SKY/WX    TMP DP  RH WIND       PRES   REMARKS
OAKLAND*       CLOUDY    32 N/A N/A SE9       29.63F FOG     WCI  24
CUMBERLAND*    CLOUDY    41  41 100 CALM      29.75R

$$

VAZ025>031-260600-
SHENANDOAH VALLEY

CITY           SKY/WX    TMP DP  RH WIND       PRES   REMARKS
WINCHESTER*    CLOUDY    41  36  81 S7        29.69F FOG
FRONT ROYAL*   CLOUDY    37  37 100 CALM      29.70F
LURAY*         CLOUDY    41  41 100 N6        29.70F FOG
NEW MARKET*    CLOUDY    41  39  93 N5        29.70S
STAUNTON*      CLOUDY    41  39  91 NE5       29.70F
WAYNESBORO*    CLOUDY    39  38  99 CALM      29.68S

$$

WVZ021-048>050-054>055-260600-
EASTERN WEST VIRGINIA PANHANDLE

CITY           SKY/WX    TMP DP  RH WIND       PRES   REMARKS
MARTINSBURG    CLOUDY    41  38  89 CALM      29.70F
PETERSBURG*    CLOUDY    38  33  84 CALM      29.71S

$$

VAZ036>039-050-260600-
CENTRAL FOOTHILLS

CITY           SKY/WX    TMP DP  RH WIND       PRES   REMARKS
CHARLOTTESVILL CLOUDY    41  39  93 NE7       29.70F FOG
CULPEPER*      CLOUDY    43  41  93 NE3       29.72F
ORANGE*        CLOUDY    41  41 100 N3        29.73S FOG
GORDONSVILLE*  CLOUDY    40  39  97 NE3       29.71S FOG
WARRENTON*     CLOUDY    41  40  97 NE3       29.72S

$$

VAZ055>057-260600-
NORTH AND CENTRAL PIEDMONT

CITY           SKY/WX    TMP DP  RH WIND       PRES   REMARKS
FREDERICKSBRG* DRIZZLE   43  43 100 N3        29.72F
STAFFORD*      RAIN      41  32  70 N3        29.77F

$$

NCZ024-NYZ072-PAZ021-071-VAZ022-071-260600-
OTHER REGIONAL OBSERVATIONS

CITY           SKY/WX    TMP DP  RH WIND       PRES   REMARKS
NEW YORK CITY  MOCLDY    52  26  36 VRB6      29.72S
PHILADELPHIA   CLOUDY    48  37  65 W7        29.69F
PITTSBURGH     CLOUDY    47  24  40 NE14      29.67R
ROANOKE        CLOUDY    43  41  93 CALM      29.70R
RICHMOND       LGT RAIN  46  43  89 N8        29.70F FOG
RALEIGH        FOG       48  47  96 NE7       29.65F VSB 1/2

$$

ANZ530>537-260600-
MARINE OBSERVATIONS

STATION/POSITION TIME  TEMP    WIND        PRES
                       AIR SEA DIR/SP/G
                 (UTC) (F)     (DEG/KT/KT) (MB)
THOMAS PT LIGHT  0500   45 52  170/  9/ 10 1006.7F
BALT KEY BRIDGE  0412   44     250/  5/  6 1005.9F
COVE POINT       0412   45      40/ 13/ 16 1007.1F
LEWISETTA        0400   47 57              1005.8F
SOLOMONS ISLAND  0412      54                N/A
PINEY POINT      0400           30/  6/  8   N/A

$$




USA.gov is the U.S. government's official web portal to all federal, state and local government web resources and services.